Location: Clarion
(42.7316°N, 93.7330°W)
Time: 09:10:30
(UTC+00:00)

USA 267 - Pass Details

Date: 22 April 2026
Orbit: 1101 x 1107 km, 123.0° (Epoch: 10 January)

Event Time Altitude Azimuth Distance (km) Brightness Sun altitude
Rises 08:32:35 0° 48° (NE) 3,934 7.4 -26.5°
Reaches altitude 10° 08:35:04 10° 50° (NE) 2,973 6.5 -26.2°
Maximum altitude 08:41:39 82° 138° (SE) 1,121 3.2 -25.4°
Enters shadow 08:43:24 53° 217° (SW) 1,337 3.3 -25.2°
